Weather History for Dayton Wright, OH

Change the Weather History Date:

Monday, January 28, 2013

  Actual Average (KFFO) Record (KFFO)
Temperature  
Mean Temperature 42 °F -  
Max Temperature 51 °F 35 °F 64 °F (2002)
Min Temperature 35 °F 18 °F -11 °F (2014)
Degree Days  
Heating Degree Days 22    
Moisture  
Dew Point 44 °F    
Average Humidity 94    
Maximum Humidity 100    
Minimum Humidity 76    
Precipitation  
Precipitation 0.32 in - - ()
Sea Level Pressure  
Sea Level Pressure 30.07 in    
Wind  
Wind Speed 12 mph (SSW)    
Max Wind Speed 16 mph    
Max Gust Speed 25 mph    
Visibility 4 miles    
Events Fog , Rain    
Averages and records for this station are not official NWS values.
T = Trace of Precipitation, MM = Missing Value Source: NWS Daily Summary

Daily Weather History Graph

Daily Weather History Graph

Search for Another Location

Airport:

Trip Planner

Search our weather history database for the weather conditions in past years. The results will help you decide how hot, cold, wet, or windy it might be!

Date:

Astronomy

Jan. 28, 2013 Rise Set
Actual Time 7:47 AM EST 5:52 PM EST
Civil Twilight 7:19 AM EST 6:21 PM EST
Nautical Twilight 6:46 AM EST 6:53 PM EST
Astronomical Twilight 6:14 AM EST 7:25 PM EST
Moon 7:45 PM EST (1/28) 8:13 AM EST (1/28)
Length of Visible Light 11h 02m
Length of Day
10h 04m
Full, 98% of the Moon is Illuminated
Jan 28
Full
Feb 3
Last Quarter
Feb 10
New
Feb 17
First Quarter
Feb 25
Full

Hourly Weather History & Observations

Time (EST) Temp. Windchill Dew Point Humidity Pressure Visibility Wind Dir Wind Speed Gust Speed Precip Events Conditions
12:26 AM 35.6 °F 27.1 °F 33.8 °F 93% 30.15 in 4.0 mi SE 12.7 mph - 0.02 in   Overcast
12:53 AM 36.0 °F 27.1 °F 34.0 °F 93% 30.16 in 4.0 mi South 13.8 mph - 0.04 in Rain Light Rain
1:35 AM 37.4 °F 28.9 °F 35.6 °F 93% 30.11 in 5.0 mi South 13.8 mph - 0.02 in   Overcast
1:53 AM 37.9 °F 30.0 °F 37.0 °F 97% 30.14 in 4.0 mi South 12.7 mph - 0.02 in   Overcast
2:53 AM 39.0 °F 31.4 °F 37.9 °F 96% 30.14 in 4.0 mi South 12.7 mph - N/A   Overcast
3:14 AM 39.2 °F 32.5 °F 37.4 °F 93% 30.11 in 4.0 mi South 10.4 mph - 0.00 in   Overcast
3:27 AM 39.2 °F 30.8 °F 39.2 °F 100% 30.10 in 4.0 mi South 15.0 mph - 0.00 in   Overcast
3:50 AM 39.2 °F 31.2 °F 39.2 °F 100% 30.09 in 4.0 mi South 13.8 mph - 0.00 in   Overcast
3:53 AM 39.9 °F 32.1 °F 39.0 °F 97% 30.11 in 4.0 mi South 13.8 mph - 0.00 in   Overcast
4:53 AM 42.1 °F 34.9 °F 39.9 °F 92% 30.10 in 7.0 mi South 13.8 mph - N/A   Overcast
5:53 AM 43.0 °F 36.0 °F 41.0 °F 93% 30.08 in 9.0 mi SSW 13.8 mph - N/A   Scattered Clouds
6:53 AM 44.1 °F 37.4 °F 41.0 °F 89% 30.07 in 10.0 mi SSW 13.8 mph - N/A   Overcast
7:53 AM 45.0 °F 39.3 °F 39.9 °F 82% 30.07 in 10.0 mi SSW 11.5 mph - N/A   Overcast
8:37 AM 46.4 °F 41.1 °F 39.2 °F 76% 30.06 in 7.0 mi SSW 11.5 mph 19.6 mph 0.01 in Rain Light Rain
8:53 AM 45.0 °F 40.6 °F 41.0 °F 86% 30.09 in 2.0 mi SSW 8.1 mph - 0.04 in Rain Rain
9:02 AM 44.6 °F 39.7 °F 41.0 °F 87% 30.07 in 1.5 mi SSW 9.2 mph - 0.05 in Rain Rain
9:27 AM 44.6 °F 40.2 °F 42.8 °F 93% 30.07 in 3.0 mi SSW 8.1 mph - 0.13 in Rain Light Rain
9:53 AM 45.0 °F 41.2 °F 43.0 °F 93% 30.09 in 5.0 mi SSW 6.9 mph - 0.13 in   Overcast
10:53 AM 46.0 °F 41.0 °F 44.1 °F 93% 30.09 in 5.0 mi SSW 10.4 mph 17.3 mph 0.01 in   Overcast
11:53 AM 48.0 °F - 45.0 °F 89% 30.08 in 8.0 mi SSW 15.0 mph 24.2 mph 0.00 in   Overcast
12:15 PM 48.2 °F - 44.6 °F 87% 30.06 in 8.0 mi SSW 16.1 mph 23.0 mph N/A   Overcast
12:53 PM 48.9 °F - 46.0 °F 90% 30.06 in 7.0 mi SSW 13.8 mph 25.3 mph 0.01 in   Overcast
1:12 PM 48.2 °F - 46.4 °F 93% 30.04 in 1.8 mi SSW 16.1 mph 25.3 mph 0.04 in Rain Heavy Rain
1:27 PM 48.2 °F - 46.4 °F 93% 30.04 in 3.0 mi SW 13.8 mph - 0.07 in Rain Light Rain
1:53 PM 48.9 °F - 46.9 °F 93% 30.04 in 4.0 mi SW 11.5 mph 21.9 mph 0.07 in Rain Light Rain
2:53 PM 50.0 °F - 48.0 °F 93% 30.02 in 5.0 mi SSW 12.7 mph 20.7 mph 0.00 in   Overcast
3:53 PM 50.0 °F - 48.9 °F 96% 30.03 in 4.0 mi SW 13.8 mph 20.7 mph N/A   Overcast
4:00 PM 50.0 °F - 48.2 °F 94% 30.02 in 4.0 mi SSW 13.8 mph - N/A   Overcast
4:53 PM 50.0 °F - 48.9 °F 96% 30.04 in 5.0 mi SSW 12.7 mph 19.6 mph N/A   Overcast
5:53 PM 50.0 °F - 48.9 °F 96% 30.05 in 6.0 mi SW 11.5 mph - N/A   Overcast
6:53 PM 50.0 °F - 48.9 °F 96% 30.05 in 4.0 mi SSW 9.2 mph - N/A   Overcast
7:24 PM 50.0 °F - 48.2 °F 94% 30.05 in 2.5 mi SSW 8.1 mph - N/A   Overcast
7:53 PM 50.0 °F - 48.9 °F 96% 30.06 in 2.5 mi SSW 6.9 mph - N/A   Overcast
8:53 PM 50.0 °F - 50.0 °F 100% 30.06 in 1.2 mi SSW 10.4 mph - 0.00 in   Overcast
9:16 PM 50.0 °F - 50.0 °F 100% 30.04 in 0.8 mi SSW 10.4 mph - N/A   Overcast
9:26 PM 50.0 °F - 50.0 °F 100% 30.05 in 0.5 mi SSW 11.5 mph - N/A Fog Fog
9:53 PM 50.0 °F - 50.0 °F 100% 30.05 in 0.2 mi SSW 10.4 mph - N/A Fog Fog
10:46 PM 50.0 °F - 50.0 °F 100% 30.04 in 0.8 mi SSW 10.4 mph - N/A   Overcast
10:53 PM 50.0 °F - 50.0 °F 100% 30.05 in 1.0 mi SSW 9.2 mph - N/A   Overcast
11:53 PM 51.1 °F - 51.1 °F 100% 30.05 in 2.0 mi SSW 10.4 mph - N/A   Overcast